QPF
0.03 0.04 0.05 0.04 0.03 0.03 0.03 0.02 0.02 0.04 0.07 0.04 0.02 0.01 0.01 0.01 0.00 0.00 0.00 0.00 0.01 0.01 0.02 0.02 0.02 0.02 0.02 0.02 0.03 0.04 0.06 0.05 0.04 0.03 0.03 0.03 0.03 0.03 0.03 0.04 0.04 0.04 0.06
0.03 0.04 0.04 0.03 0.03 0.03 0.03 0.02 0.02 0.03 0.06 0.06 0.03 0.01 0.01 0.01 0.00 0.00 0.00 0.00 0.00 0.00 0.01 0.03 0.04 0.03 0.03 0.03 0.05 0.04 0.04 0.04 0.03 0.03 0.03 0.03 0.03 0.04 0.04 0.03 0.03 0.03 0.03
0.03 0.04 0.04 0.04 0.03 0.03 0.03 0.02 0.02 0.03 0.06 0.07 0.04 0.02 0.02 0.01 0.00 0.00 0.01 0.01 0.00 0.00 0.00 0.02 0.03 0.04 0.04 0.04 0.06 0.07 0.03 0.03 0.04 0.04 0.02 0.03 0.03 0.03 0.03 0.03 0.03 0.03 0.03
0.04 0.05 0.05 0.04 0.03 0.03 0.03 0.03 0.02 0.03 0.05 0.06 0.05 0.03 0.02 0.02 0.01 0.01 0.02 0.01 0.01 0.00 0.01 0.01 0.02 0.02 0.02 0.04 0.06 0.09 0.05 0.04 0.05 0.03 0.02 0.02 0.02 0.02 0.03 0.04 0.04 0.05 0.04
0.07 0.07 0.08 0.05 0.04 0.04 0.03 0.03 0.03 0.03 0.05 0.06 0.05 0.03 0.02 0.02 0.02 0.02 0.02 0.01 0.00 0.01 0.01 0.01 0.01 0.01 0.02 0.03 0.04 0.07 0.07 0.07 0.05 0.02 0.01 0.01 0.01 0.02 0.03 0.03 0.04 0.05 0.04
0.11 0.09 0.09 0.08 0.06 0.05 0.04 0.03 0.03 0.04 0.06 0.07 0.05 0.04 0.03 0.02 0.02 0.02 0.02 0.01 0.01 0.01 0.01 0.01 0.01 0.01 0.02 0.04 0.06 0.06 0.05 0.05 0.05 0.03 0.01 0.01 0.01 0.01 0.02 0.03 0.04 0.05 0.04
0.12 0.12 0.09 0.09 0.07 0.05 0.05 0.04 0.04 0.04 0.06 0.08 0.08 0.05 0.04 0.03 0.03 0.02 0.02 0.02 0.02 0.01 0.01 0.01 0.01 0.01 0.02 0.03 0.06 0.07 0.04 0.03 0.03 0.04 0.02 0.01 0.00 0.00 0.01 0.02 0.04 0.05 0.05
0.11 0.13 0.11 0.09 0.08 0.06 0.05 0.05 0.05 0.05 0.05 0.08 0.08 0.06 0.05 0.04 0.03 0.03 0.02 0.02 0.02 0.02 0.01 0.01 0.01 0.01 0.01 0.01 0.03 0.04 0.04 0.03 0.03 0.05 0.04 0.02 0.01 0.01 0.01 0.02 0.05 0.06 0.05
0.11 0.12 0.13 0.10 0.08 0.06 0.05 0.05 0.05 0.05 0.05 0.07 0.07 0.06 0.04 0.04 0.03 0.02 0.02 0.03 0.02 0.02 0.01 0.01 0.01 0.01 0.01 0.01 0.01 0.02 0.02 0.01 0.02 0.05 0.08 0.04 0.02 0.02 0.02 0.03 0.06 0.07 0.05
0.08 0.09 0.09 0.08 0.06 0.04 0.03 0.04 0.06 0.07 0.06 0.07 0.07 0.06 0.04 0.03 0.03 0.02 0.01 0.02 0.02 0.02 0.02 0.01 0.01 0.01 0.02 0.01 0.01 0.02 0.02 0.01 0.01 0.03 0.07 0.07 0.03 0.02 0.03 0.04 0.06 0.06 0.06
0.07 0.06 0.06 0.06 0.04 0.02 0.01 0.02 0.04 0.06 0.07 0.08 0.07 0.06 0.05 0.03 0.03 0.03 0.03 0.02 0.02 0.02 0.01 0.01 0.01 0.02 0.02 0.02 0.01 0.02 0.03 0.02 0.02 0.03 0.03 0.04 0.03 0.03 0.03 0.04 0.04 0.04 0.04
0.09 0.07 0.06 0.05 0.04 0.03 0.01 0.01 0.01 0.02 0.04 0.07 0.08 0.07 0.05 0.04 0.03 0.02 0.03 0.04 0.04 0.03 0.02 0.01 0.02 0.03 0.03 0.03 0.02 0.03 0.03 0.03 0.02 0.03 0.02 0.02 0.01 0.02 0.03 0.03 0.04 0.03 0.03
0.11 0.09 0.08 0.07 0.05 0.03 0.02 0.02 0.02 0.02 0.03 0.05 0.07 0.08 0.05 0.04 0.03 0.02 0.02 0.03 0.04 0.04 0.05 0.04 0.04 0.03 0.03 0.03 0.03 0.04 0.02 0.02 0.01 0.02 0.03 0.02 0.02 0.02 0.03 0.02 0.03 0.04 0.04
0.08 0.08 0.07 0.07 0.07 0.06 0.06 0.05 0.05 0.05 0.05 0.06 0.07 0.07 0.06 0.04 0.03 0.02 0.02 0.03 0.03 0.04 0.04 0.05 0.04 0.03 0.03 0.03 0.03 0.03 0.03 0.03 0.02 0.02 0.03 0.03 0.02 0.03 0.02 0.02 0.02 0.03 0.04
0.05 0.05 0.06 0.07 0.07 0.07 0.07 0.09 0.10 0.10 0.09 0.09 0.09 0.09 0.08 0.06 0.04 0.03 0.03 0.03 0.04 0.04 0.03 0.03 0.04 0.03 0.03 0.03 0.03 0.02 0.02 0.03 0.02 0.02 0.02 0.02 0.02 0.01 0.01 0.01 0.01 0.02 0.02
0.04 0.04 0.05 0.06 0.07 0.07 0.08 0.09 0.11 0.11 0.12 0.12 0.11 0.09 0.10 0.09 0.07 0.05 0.03 0.02 0.03 0.03 0.03 0.03 0.03 0.03 0.03 0.02 0.03 0.02 0.02 0.02 0.02 0.02 0.02 0.01 0.01 0.01 0.00 0.00 0.01 0.01 0.01
0.02 0.02 0.03 0.03 0.04 0.05 0.05 0.06 0.07 0.08 0.08 0.09 0.10 0.10 0.10 0.10 0.09 0.08 0.06 0.05 0.04 0.03 0.04 0.03 0.03 0.03 0.03 0.02 0.02 0.02 0.01 0.01 0.01 0.01 0.01 0.01 0.01 0.00 0.00 0.00 0.00 0.01 0.01
0.02 0.01 0.01 0.01 0.02 0.02 0.03 0.04 0.04 0.05 0.05 0.05 0.06 0.06 0.07 0.08 0.09 0.09 0.08 0.07 0.06 0.05 0.04 0.03 0.03 0.02 0.02 0.01 0.01 0.01 0.00 0.00 0.00 0.00 0.00 0.00 0.00 0.00 0.00 0.00 0.00 0.00 0.00
0.01 0.01 0.01 0.01 0.01 0.01 0.01 0.02 0.03 0.03 0.03 0.04 0.04 0.04 0.04 0.04 0.05 0.06 0.06 0.06 0.05 0.04 0.03 0.02 0.02 0.02 0.02 0.01 0.01 0.01 0.00 0.00 0.00 0.00 0.00 0.00 0.00 0.00 0.00 0.00 0.00 0.00 0.00
0.01 0.01 0.01 0.01 0.01 0.01 0.01 0.01 0.01 0.01 0.01 0.02 0.02 0.02 0.02 0.02 0.02 0.03 0.03 0.03 0.03 0.03 0.03 0.02 0.02 0.02 0.02 0.02 0.02 0.01 0.01 0.00 0.00 0.00 0.00 0.00 0.00 0.00 0.00 0.00 0.00 0.00 0.00
0.02 0.01 0.01 0.01 0.01 0.01 0.01 0.01 0.00 0.00 0.01 0.01 0.01 0.01 0.01 0.01 0.02 0.02 0.02 0.02 0.02 0.02 0.03 0.02 0.02 0.01 0.02 0.02 0.02 0.01 0.01 0.00 0.00 0.00 0.00 0.00 0.00 0.00 0.00 0.00 0.00 0.00 0.00
0.01 0.01 0.01 0.01 0.01 0.01 0.01 0.01 0.00 0.00 0.00 0.01 0.01 0.01 0.01 0.01 0.01 0.01 0.02 0.01 0.01 0.01 0.02 0.02 0.02 0.01 0.01 0.01 0.01 0.01 0.01 0.01 0.00 0.00 0.00 0.00 0.00 0.00 0.00 0.00 0.00 0.00 0.00
0.02 0.01 0.01 0.01 0.01 0.01 0.01 0.01 0.01 0.01 0.01 0.01 0.01 0.01 0.01 0.01 0.01 0.01 0.01 0.02 0.01 0.01 0.01 0.01 0.01 0.01 0.01 0.01 0.01 0.01 0.01 0.01 0.01 0.00 0.00 0.00 0.00 0.00 0.00 0.00 0.00 0.00 0.00
0.02 0.02 0.01 0.01 0.01 0.01 0.01 0.01 0.01 0.01 0.01 0.01 0.01 0.01 0.01 0.01 0.01 0.01 0.02 0.02 0.01 0.01 0.01 0.01 0.00 0.01 0.01 0.01 0.01 0.01 0.01 0.01 0.01 0.01 0.00 0.00 0.00 0.00 0.00 0.00 0.00 0.00 0.00
0.02 0.02 0.01 0.01 0.01 0.01 0.02 0.02 0.02 0.02 0.02 0.01 0.01 0.01 0.01 0.01 0.02 0.02 0.02 0.03 0.02 0.02 0.02 0.02 0.01 0.01 0.01 0.01 0.01 0.01 0.01 0.02 0.02 0.01 0.00 0.00 0.00 0.00 0.00 0.00 0.00 0.00 0.00
0.01 0.02 0.02 0.01 0.01 0.01 0.02 0.02 0.02 0.02 0.02 0.01 0.01 0.01 0.01 0.01 0.01 0.02 0.02 0.02 0.03 0.02 0.02 0.02 0.02 0.02 0.02 0.02 0.02 0.01 0.01 0.02 0.02 0.01 0.01 0.00 0.00 0.00 0.01 0.00 0.00 0.00 0.00
MSLP
1019.23 1019.51 1019.77 1019.99 1020.17 1020.28 1020.32 1020.29 1020.18 1020.02 1019.81 1019.59 1019.37 1019.19 1019.07 1019.03 1019.06 1019.16 1019.32 1019.50 1019.67 1019.80 1019.88 1019.88 1019.80 1019.65 1019.45 1019.21 1018.96 1018.69 1018.42 1018.16 1017.88 1017.60 1017.31 1017.00 1016.68 1016.35 1016.03 1015.72 1015.43 1015.18 1014.98
1019.31 1019.59 1019.85 1020.08 1020.26 1020.37 1020.42 1020.39 1020.29 1020.13 1019.94 1019.73 1019.54 1019.39 1019.30 1019.28 1019.33 1019.46 1019.62 1019.80 1019.97 1020.11 1020.18 1020.18 1020.10 1019.96 1019.76 1019.54 1019.28 1019.02 1018.76 1018.49 1018.22 1017.94 1017.65 1017.34 1017.03 1016.71 1016.39 1016.08 1015.80 1015.54 1015.32
1019.38 1019.68 1019.96 1020.20 1020.39 1020.51 1020.56 1020.54 1020.45 1020.30 1020.12 1019.94 1019.78 1019.65 1019.59 1019.59 1019.66 1019.79 1019.95 1020.12 1020.28 1020.39 1020.45 1020.44 1020.37 1020.23 1020.05 1019.83 1019.59 1019.34 1019.09 1018.82 1018.56 1018.28 1017.99 1017.70 1017.40 1017.09 1016.79 1016.51 1016.24 1015.99 1015.78
1019.47 1019.80 1020.10 1020.36 1020.57 1020.71 1020.76 1020.74 1020.66 1020.52 1020.35 1020.19 1020.05 1019.95 1019.91 1019.93 1020.00 1020.12 1020.26 1020.41 1020.54 1020.63 1020.67 1020.65 1020.58 1020.45 1020.28 1020.08 1019.86 1019.63 1019.38 1019.13 1018.87 1018.60 1018.32 1018.04 1017.75 1017.47 1017.20 1016.94 1016.69 1016.47 1016.28
1019.56 1019.93 1020.27 1020.56 1020.79 1020.93 1020.99 1020.97 1020.88 1020.75 1020.59 1020.45 1020.32 1020.24 1020.21 1020.23 1020.30 1020.40 1020.52 1020.64 1020.73 1020.79 1020.81 1020.79 1020.71 1020.60 1020.45 1020.27 1020.08 1019.86 1019.64 1019.40 1019.15 1018.89 1018.62 1018.34 1018.07 1017.81 1017.56 1017.33 1017.12 1016.92 1016.75
1019.66 1020.08 1020.46 1020.78 1021.02 1021.17 1021.23 1021.20 1021.11 1020.97 1020.82 1020.68 1020.56 1020.49 1020.46 1020.48 1020.53 1020.61 1020.70 1020.77 1020.84 1020.87 1020.87 1020.83 1020.77 1020.67 1020.55 1020.40 1020.24 1020.06 1019.86 1019.64 1019.40 1019.15 1018.88 1018.61 1018.35 1018.10 1017.87 1017.66 1017.47 1017.30 1017.14
1019.76 1020.23 1020.64 1020.99 1021.24 1021.39 1021.44 1021.40 1021.30 1021.16 1021.01 1020.87 1020.76 1020.69 1020.66 1020.67 1020.70 1020.74 1020.79 1020.83 1020.85 1020.85 1020.84 1020.80 1020.75 1020.67 1020.58 1020.48 1020.35 1020.21 1020.03 1019.84 1019.62 1019.37 1019.11 1018.84 1018.59 1018.34 1018.11 1017.91 1017.73 1017.57 1017.42
1019.86 1020.35 1020.80 1021.16 1021.41 1021.55 1021.59 1021.55 1021.44 1021.30 1021.15 1021.03 1020.93 1020.86 1020.83 1020.82 1020.82 1020.83 1020.83 1020.83 1020.81 1020.78 1020.75 1020.71 1020.67 1020.62 1020.57 1020.50 1020.42 1020.31 1020.17 1020.00 1019.79 1019.56 1019.30 1019.03 1018.77 1018.52 1018.29 1018.08 1017.90 1017.74 1017.59
1019.92 1020.44 1020.90 1021.27 1021.52 1021.66 1021.69 1021.64 1021.53 1021.40 1021.27 1021.16 1021.08 1021.02 1020.99 1020.96 1020.94 1020.91 1020.87 1020.81 1020.75 1020.69 1020.64 1020.59 1020.55 1020.53 1020.51 1020.48 1020.44 1020.37 1020.26 1020.11 1019.92 1019.70 1019.44 1019.17 1018.90 1018.64 1018.40 1018.19 1017.99 1017.82 1017.66
1019.95 1020.48 1020.94 1021.30 1021.55 1021.68 1021.71 1021.67 1021.58 1021.47 1021.38 1021.30 1021.24 1021.21 1021.18 1021.14 1021.10 1021.03 1020.94 1020.84 1020.73 1020.63 1020.54 1020.48 1020.44 1020.43 1020.43 1020.42 1020.41 1020.36 1020.28 1020.16 1019.98 1019.76 1019.51 1019.24 1018.97 1018.70 1018.45 1018.22 1018.02 1017.83 1017.67
1019.93 1020.46 1020.91 1021.27 1021.50 1021.63 1021.67 1021.65 1021.59 1021.53 1021.48 1021.45 1021.44 1021.44 1021.42 1021.39 1021.32 1021.22 1021.08 1020.93 1020.77 1020.62 1020.50 1020.41 1020.35 1020.33 1020.33 1020.34 1020.33 1020.30 1020.23 1020.12 1019.95 1019.74 1019.50 1019.23 1018.95 1018.68 1018.43 1018.19 1017.98 1017.79 1017.61
1019.86 1020.39 1020.83 1021.17 1021.40 1021.53 1021.59 1021.60 1021.59 1021.59 1021.60 1021.63 1021.68 1021.71 1021.72 1021.70 1021.61 1021.48 1021.31 1021.10 1020.89 1020.69 1020.52 1020.40 1020.31 1020.26 1020.24 1020.23 1020.22 1020.18 1020.11 1019.99 1019.83 1019.62 1019.38 1019.12 1018.85 1018.58 1018.33 1018.10 1017.89 1017.70 1017.52
1019.75 1020.27 1020.70 1021.03 1021.26 1021.41 1021.49 1021.54 1021.58 1021.64 1021.73 1021.83 1021.93 1022.02 1022.06 1022.04 1021.96 1021.81 1021.60 1021.35 1021.10 1020.85 1020.63 1020.45 1020.32 1020.23 1020.18 1020.13 1020.09 1020.03 1019.93 1019.80 1019.62 1019.41 1019.17 1018.91 1018.65 1018.39 1018.15 1017.93 1017.73 1017.55 1017.38
1019.64 1020.14 1020.56 1020.89 1021.12 1021.28 1021.40 1021.49 1021.59 1021.71 1021.86 1022.03 1022.19 1022.32 1022.40 1022.40 1022.32 1022.16 1021.93 1021.66 1021.36 1021.07 1020.81 1020.58 1020.40 1020.26 1020.15 1020.06 1019.96 1019.85 1019.72 1019.55 1019.35 1019.12 1018.87 1018.61 1018.36 1018.11 1017.88 1017.68 1017.50 1017.34 1017.19
1019.53 1020.03 1020.45 1020.77 1021.02 1021.20 1021.34 1021.48 1021.62 1021.80 1022.00 1022.22 1022.42 1022.59 1022.70 1022.72 1022.66 1022.50 1022.26 1021.97 1021.66 1021.34 1021.03 1020.76 1020.53 1020.34 1020.17 1020.01 1019.86 1019.69 1019.50 1019.28 1019.04 1018.78 1018.51 1018.24 1017.98 1017.74 1017.53 1017.34 1017.18 1017.04 1016.91
1019.48 1019.98 1020.39 1020.73 1020.99 1021.19 1021.36 1021.52 1021.70 1021.91 1022.14 1022.39 1022.62 1022.81 1022.94 1022.98 1022.93 1022.78 1022.55 1022.26 1021.94 1021.60 1021.28 1020.98 1020.71 1020.46 1020.23 1020.01 1019.79 1019.55 1019.30 1019.02 1018.73 1018.42 1018.11 1017.82 1017.54 1017.30 1017.08 1016.90 1016.76 1016.64 1016.53
1019.51 1020.01 1020.44 1020.79 1021.06 1021.28 1021.47 1021.65 1021.84 1022.06 1022.30 1022.54 1022.78 1022.97 1023.10 1023.15 1023.11 1022.98 1022.76 1022.49 1022.17 1021.84 1021.51 1021.18 1020.88 1020.59 1020.31 1020.03 1019.74 1019.44 1019.12 1018.78 1018.42 1018.06 1017.70 1017.36 1017.05 1016.78 1016.55 1016.37 1016.23 1016.13 1016.05
1019.64 1020.15 1020.59 1020.96 1021.25 1021.48 1021.68 1021.86 1022.05 1022.25 1022.47 1022.69 1022.90 1023.07 1023.19 1023.24 1023.20 1023.08 1022.89 1022.63 1022.33 1022.01 1021.67 1021.34 1021.01 1020.69 1020.37 1020.04 1019.70 1019.34 1018.96 1018.55 1018.13 1017.71 1017.29 1016.90 1016.54 1016.23 1015.97 1015.77 1015.62 1015.52 1015.45
1019.88 1020.39 1020.84 1021.23 1021.54 1021.78 1021.98 1022.15 1022.31 1022.48 1022.65 1022.83 1022.99 1023.13 1023.22 1023.25 1023.21 1023.10 1022.91 1022.67 1022.39 1022.08 1021.75 1021.41 1021.07 1020.72 1020.37 1020.01 1019.62 1019.22 1018.78 1018.33 1017.85 1017.37 1016.89 1016.43 1016.02 1015.65 1015.34 1015.10 1014.93 1014.82 1014.76
1020.20 1020.72 1021.18 1021.58 1021.89 1022.14 1022.33 1022.48 1022.60 1022.72 1022.83 1022.95 1023.06 1023.14 1023.20 1023.20 1023.15 1023.03 1022.85 1022.62 1022.35 1022.04 1021.71 1021.36 1021.01 1020.65 1020.28 1019.89 1019.48 1019.04 1018.58 1018.09 1017.57 1017.04 1016.50 1015.99 1015.50 1015.07 1014.71 1014.42 1014.21 1014.08 1014.02
1020.58 1021.10 1021.56 1021.96 1022.28 1022.51 1022.68 1022.80 1022.88 1022.95 1023.00 1023.05 1023.09 1023.12 1023.13 1023.10 1023.02 1022.90 1022.71 1022.48 1022.20 1021.88 1021.55 1021.19 1020.82 1020.45 1020.06 1019.66 1019.24 1018.80 1018.32 1017.82 1017.28 1016.71 1016.14 1015.57 1015.02 1014.52 1014.09 1013.75 1013.49 1013.33 1013.25
1020.98 1021.48 1021.94 1022.32 1022.63 1022.85 1023.00 1023.08 1023.11 1023.12 1023.11 1023.10 1023.09 1023.06 1023.02 1022.96 1022.85 1022.70 1022.50 1022.25 1021.96 1021.63 1021.27 1020.89 1020.51 1020.12 1019.73 1019.33 1018.91 1018.48 1018.01 1017.51 1016.97 1016.39 1015.79 1015.18 1014.59 1014.03 1013.54 1013.13 1012.82 1012.61 1012.51
1021.36 1021.84 1022.27 1022.63 1022.91 1023.10 1023.22 1023.26 1023.26 1023.21 1023.16 1023.09 1023.02 1022.95 1022.87 1022.77 1022.64 1022.46 1022.24 1021.96 1021.64 1021.29 1020.90 1020.50 1020.10 1019.70 1019.30 1018.90 1018.51 1018.09 1017.65 1017.17 1016.64 1016.07 1015.47 1014.84 1014.21 1013.60 1013.05 1012.59 1012.22 1011.97 1011.83
1021.70 1022.13 1022.52 1022.84 1023.08 1023.24 1023.32 1023.33 1023.28 1023.20 1023.10 1022.99 1022.89 1022.78 1022.67 1022.54 1022.38 1022.17 1021.92 1021.62 1021.28 1020.89 1020.47 1020.05 1019.62 1019.21 1018.81 1018.42 1018.04 1017.65 1017.24 1016.80 1016.30 1015.75 1015.15 1014.52 1013.87 1013.23 1012.64 1012.13 1011.72 1011.42 1011.23
1021.97 1022.34 1022.67 1022.95 1023.14 1023.26 1023.30 1023.27 1023.19 1023.08 1022.95 1022.81 1022.68 1022.55 1022.41 1022.25 1022.07 1021.84 1021.56 1021.24 1020.86 1020.45 1020.01 1019.56 1019.12 1018.69 1018.29 1017.91 1017.55 1017.18 1016.80 1016.39 1015.92 1015.40 1014.82 1014.19 1013.54 1012.88 1012.27 1011.73 1011.28 1010.94 1010.73
1022.17 1022.48 1022.74 1022.95 1023.09 1023.16 1023.16 1023.11 1023.00 1022.86 1022.71 1022.55 1022.40 1022.24 1022.08 1021.91 1021.70 1021.46 1021.16 1020.82 1020.42 1019.99 1019.53 1019.06 1018.61 1018.17 1017.76 1017.38 1017.03 1016.68 1016.32 1015.92 1015.48 1014.98 1014.41 1013.80 1013.15 1012.50 1011.88 1011.33 1010.86 1010.51 1010.27
Thickness
5677 5677 5677 5677 5678 5678 5679 5679 5679 5680 5680 5680 5680 5680 5680 5679 5679 5678 5677 5674 5674 5674 5673 5673 5672 5671 5670 5670 5668 5668 5667 5666 5664 5663 5662 5661 5661 5660 5659 5657 5656 5654 5653
5671 5671 5672 5672 5672 5673 5674 5674 5674 5674 5675 5675 5675 5675 5675 5675 5674 5674 5673 5671 5669 5668 5668 5667 5667 5667 5666 5665 5664 5663 5662 5661 5660 5659 5658 5657 5656 5655 5654 5653 5651 5650 5648
5665 5666 5666 5667 5667 5667 5667 5668 5669 5668 5669 5670 5670 5670 5670 5670 5669 5669 5668 5667 5665 5664 5663 5662 5662 5661 5661 5660 5660 5658 5657 5656 5655 5654 5653 5652 5651 5651 5650 5648 5646 5645 5643
5658 5659 5660 5661 5661 5661 5661 5662 5663 5663 5663 5664 5664 5664 5664 5663 5664 5663 5662 5661 5660 5659 5658 5657 5656 5655 5655 5654 5654 5653 5652 5651 5650 5649 5648 5647 5646 5646 5645 5644 5642 5641 5639
5652 5653 5654 5654 5654 5654 5654 5655 5656 5657 5656 5656 5657 5657 5657 5657 5657 5657 5657 5656 5654 5654 5653 5651 5650 5649 5648 5648 5647 5647 5646 5645 5644 5643 5642 5642 5641 5641 5640 5639 5638 5636 5634
5645 5647 5647 5647 5647 5647 5648 5648 5648 5648 5649 5649 5649 5649 5649 5650 5650 5650 5650 5649 5648 5647 5646 5645 5644 5643 5641 5641 5640 5640 5640 5639 5638 5637 5636 5635 5635 5635 5635 5634 5633 5632 5630
5638 5639 5640 5639 5639 5640 5641 5641 5640 5640 5640 5641 5641 5640 5640 5641 5642 5642 5643 5643 5642 5640 5639 5638 5637 5636 5636 5634 5634 5633 5633 5632 5631 5630 5630 5629 5629 5629 5629 5629 5628 5627 5625
5630 5631 5632 5632 5632 5632 5632 5632 5632 5633 5632 5632 5634 5634 5634 5634 5635 5635 5635 5635 5635 5633 5632 5631 5630 5629 5629 5628 5627 5626 5625 5625 5625 5624 5623 5623 5623 5623 5623 5622 5622 5621 5620
5622 5623 5624 5624 5624 5626 5625 5625 5625 5625 5625 5625 5626 5629 5629 5630 5629 5629 5628 5627 5627 5626 5626 5624 5623 5622 5622 5621 5620 5619 5618 5618 5618 5618 5617 5617 5617 5617 5617 5616 5616 5615 5614
5613 5615 5616 5617 5617 5618 5618 5618 5618 5618 5618 5619 5618 5619 5622 5624 5622 5622 5621 5620 5619 5619 5618 5617 5616 5615 5614 5614 5613 5611 5611 5610 5610 5610 5610 5610 5610 5610 5610 5610 5609 5609 5607
5605 5606 5608 5609 5609 5610 5610 5610 5610 5610 5611 5612 5612 5612 5612 5613 5614 5615 5615 5613 5612 5611 5610 5609 5609 5608 5607 5606 5605 5604 5603 5602 5602 5603 5603 5603 5603 5603 5602 5602 5602 5601 5600
5597 5598 5600 5601 5601 5602 5603 5603 5603 5603 5603 5603 5604 5604 5605 5606 5606 5607 5607 5606 5604 5604 5602 5601 5600 5600 5599 5598 5597 5596 5595 5594 5594 5594 5594 5595 5594 5595 5594 5594 5593 5593 5592
5590 5591 5592 5593 5593 5594 5594 5594 5594 5595 5595 5595 5595 5596 5597 5597 5598 5598 5598 5598 5597 5595 5593 5592 5592 5591 5590 5589 5588 5587 5587 5586 5586 5586 5586 5586 5585 5585 5585 5585 5584 5584 5583
5582 5582 5583 5584 5584 5584 5584 5585 5585 5585 5585 5585 5586 5587 5587 5587 5587 5588 5589 5589 5588 5588 5587 5586 5583 5582 5581 5580 5579 5578 5578 5578 5577 5577 5577 5577 5576 5576 5575 5575 5575 5574 5574
5573 5573 5574 5574 5575 5574 5574 5575 5575 5575 5575 5575 5576 5576 5577 5577 5577 5578 5578 5579 5579 5581 5581 5579 5575 5573 5571 5570 5569 5569 5569 5568 5568 5568 5567 5567 5566 5565 5565 5565 5565 5564 5564
5563 5564 5564 5564 5564 5564 5564 5564 5565 5564 5565 5565 5565 5566 5567 5567 5567 5567 5567 5568 5569 5571 5571 5570 5566 5563 5561 5560 5559 5559 5559 5558 5558 5558 5557 5557 5556 5555 5555 5555 5554 5553 5553
5553 5554 5554 5554 5554 5553 5554 5554 5554 5554 5555 5555 5555 5555 5556 5556 5557 5556 5556 5557 5558 5559 5560 5559 5555 5553 5550 5549 5548 5548 5548 5548 5548 5547 5546 5546 5545 5544 5544 5543 5542 5541 5541
5542 5542 5543 5544 5544 5543 5543 5543 5544 5544 5544 5545 5545 5544 5545 5545 5545 5545 5545 5546 5546 5546 5547 5547 5545 5542 5541 5539 5537 5537 5537 5537 5537 5536 5535 5534 5534 5533 5532 5531 5530 5530 5529
5531 5531 5532 5533 5533 5532 5532 5532 5532 5532 5533 5533 5533 5534 5534 5534 5534 5534 5534 5534 5534 5534 5534 5534 5534 5532 5529 5527 5526 5525 5525 5525 5525 5524 5523 5523 5522 5521 5520 5519 5518 5517 5516
5519 5519 5520 5520 5520 5520 5520 5520 5519 5520 5521 5521 5522 5522 5523 5523 5524 5523 5523 5523 5522 5521 5521 5522 5522 5520 5518 5515 5514 5513 5514 5513 5512 5512 5511 5510 5509 5508 5508 5507 5506 5505 5504
5506 5507 5507 5507 5507 5507 5507 5507 5507 5507 5508 5509 5509 5510 5510 5510 5511 5511 5511 5511 5510 5510 5509 5509 5509 5508 5506 5504 5503 5502 5501 5501 5500 5499 5499 5499 5498 5497 5496 5495 5494 5493 5493
5493 5494 5494 5494 5494 5494 5494 5493 5493 5493 5494 5496 5497 5496 5497 5497 5497 5497 5496 5496 5496 5497 5496 5496 5496 5496 5497 5494 5492 5489 5487 5487 5488 5487 5485 5486 5484 5485 5484 5482 5482 5481 5480
5480 5480 5481 5481 5481 5481 5480 5480 5479 5479 5481 5482 5483 5483 5484 5484 5483 5484 5483 5482 5482 5481 5481 5482 5483 5485 5484 5482 5478 5476 5475 5474 5476 5474 5471 5474 5472 5472 5471 5469 5468 5468 5467
5468 5467 5467 5467 5467 5467 5467 5467 5466 5466 5468 5469 5469 5470 5471 5471 5470 5469 5470 5470 5470 5470 5469 5468 5469 5471 5469 5467 5465 5463 5462 5460 5459 5458 5456 5459 5460 5459 5457 5456 5456 5454 5454
5454 5453 5453 5453 5454 5454 5453 5453 5453 5454 5455 5455 5455 5455 5455 5456 5456 5454 5455 5457 5458 5458 5456 5454 5454 5455 5454 5452 5450 5447 5446 5445 5447 5447 5443 5443 5445 5444 5445 5445 5444 5442 5441
5440 5439 5440 5440 5441 5441 5440 5440 5439 5441 5442 5443 5442 5441 5440 5441 5441 5439 5440 5442 5444 5445 5443 5443 5442 5442 5441 5440 5437 5435 5435 5433 5432 5433 5432 5429 5430 5428 5431 5434 5431 5430 5429